This is the latest recevied weather packets stored in our database for station/object WK1F-2. If no packets are shown the sender has not sent any weather packets the latest 1 day(s).
| Time | Temp. | Humidity | Pressure | Rain* | Wind** | Luminosity | Snow |
|---|---|---|---|---|---|---|---|
| 1778058449 | 16.67° C | 87% | 1015.2 hPa | 0 mm | 1.79 m/s, 177° | - | - |
| 1778058148 | 16.67° C | 87% | 1015.1 hPa | 0 mm | 1.34 m/s, 176° | - | - |
| 1778057849 | 17.22° C | 86% | 1015.3 hPa | 0 mm | 1.79 m/s, 190° | - | - |
| 1778057548 | 17.22° C | 86% | 1015.3 hPa | 0 mm | 1.79 m/s, 190° | - | - |
| 1778057248 | 17.22° C | 86% | 1015.3 hPa | 0 mm | 1.34 m/s, 190° | - | - |
| 1778056948 | 17.22° C | 86% | 1015.4 hPa | 0 mm | 1.34 m/s, 203° | - | - |
| 1778056648 | 17.22° C | 85% | 1015.4 hPa | 0 mm | 1.34 m/s, 197° | - | - |
| 1778056348 | 17.22° C | 85% | 1015.4 hPa | 0 mm | 1.34 m/s, 224° | - | - |
| 1778056048 | 17.22° C | 85% | 1015.3 hPa | 0 mm | 1.34 m/s, 196° | - | - |
| 1778055748 | 17.22° C | 85% | 1015.2 hPa | 0 mm | 1.79 m/s, 214° | - | - |
| 1778055448 | 17.22° C | 85% | 1015.2 hPa | 0 mm | 1.34 m/s, 189° | - | - |
| 1778055148 | 17.22° C | 85% | 1015.3 hPa | 0 mm | 1.34 m/s, 173° | - | - |
| 1778054848 | 17.22° C | 85% | 1015.3 hPa | 0 mm | 2.24 m/s, 201° | - | - |
| 1778054548 | 17.22° C | 85% | 1015.3 hPa | 0 mm | 1.34 m/s, 203° | - | - |
| 1778054248 | 17.22° C | 85% | 1015.3 hPa | 0 mm | 1.79 m/s, 186° | - | - |
| 1778053948 | 17.22° C | 85% | 1015.3 hPa | 0 mm | 1.79 m/s, 218° | - | - |
| 1778053648 | 17.22° C | 85% | 1015.3 hPa | 0 mm | 1.34 m/s, 213° | - | - |
| 1778053348 | 17.22° C | 85% | 1015 hPa | 0 mm | 2.68 m/s, 173° | - | - |
| 1778053048 | 17.22° C | 86% | 1015 hPa | 0 mm | 1.34 m/s, 151° | - | - |
| 1778052748 | 17.22° C | 86% | 1015 hPa | 0 mm | 1.34 m/s, 160° | - | - |
| 1778052448 | 17.22° C | 87% | 1014.9 hPa | 0 mm | 1.34 m/s, 176° | - | - |
| 1778052148 | 17.22° C | 87% | 1014.8 hPa | 0 mm | 1.79 m/s, 183° | - | - |
| 1778051848 | 16.67° C | 88% | 1014.8 hPa | 0 mm | 2.24 m/s, 166° | - | - |
| 1778051548 | 16.67° C | 88% | 1014.9 hPa | 0 mm | 1.34 m/s, 194° | - | - |
| 1778051248 | 16.67° C | 88% | 1015.1 hPa | 0 mm | 1.79 m/s, 149° | - | - |
* Rain latest hour (hover to see other rain measurements)
** Current wind speed in m/s (hover to see current wind gust speed)